Windom, MN

6:07 PM CDT on September 20, 2017 (GMT -0500)
Windom Municipal

Weather History for KMWM - August, 2014

Change the Weather History Date:

Sunday, August 10, 2014

  Actual Average Record
Temperature  
Mean Temperature 72 °F -  
Max Temperature 77 °F 81 °F 92 °F (1949)
Min Temperature 66 °F 56 °F 44 °F (1967)
Cooling Degree Days 6    
Growing Degree Days 22 (Base 50)    
Moisture  
Dew Point 65 °F    
Average Humidity 82    
Maximum Humidity 94    
Minimum Humidity 69    
Precipitation  
Precipitation 0.72 in - - ()
Sea Level Pressure  
Sea Level Pressure 30.05 in    
Wind  
Wind Speed 5 mph (SW)    
Max Wind Speed 12 mph    
Max Gust Speed 17 mph    
Visibility 9 miles    
Events Rain , Thunderstorm    
Averages and records for this station are not official NWS values.
T = Trace of Precipitation, MM = Missing Value Source: NWS Daily Summary

Daily Weather History Graph

Daily Weather History Graph

Search for Another Location

Airport or City:

Trip Planner

Search our weather history database for the weather conditions in past years. The results will help you decide how hot, cold, wet, or windy it might be!

Date:

Astronomy

Aug. 10, 2014 Rise Set
Actual Time 6:18 AM CDT 8:31 PM CDT
Civil Twilight 5:47 AM CDT 9:03 PM CDT
Nautical Twilight 5:07 AM CDT 9:42 PM CDT
Astronomical Twilight 4:24 AM CDT 10:26 PM CDT
Moon 8:16 PM CDT (8/10) 6:13 AM CDT (8/10)
Length of Visible Light 15h 16m
Length of Day
14h 13m
Full, 100% of the Moon is Illuminated
Aug 10
Full
Aug 10
Full
Aug 17
Last Quarter
Aug 25
New
Sep 2
First Quarter

Hourly Weather History & Observations

Time (CDT) Temp. Dew Point Humidity Pressure Visibility Wind Dir Wind Speed Gust Speed Precip Events Conditions
12:14 AM 68.0 °F 62.6 °F 83% 30.03 in 10.0 mi SE 5.8 mph - N/A   Clear
12:33 AM 66.2 °F 62.6 °F 88% 30.03 in 10.0 mi SE 6.9 mph - N/A   Clear
12:53 AM 66.2 °F 62.6 °F 88% 30.05 in 10.0 mi SSE 4.6 mph - N/A   Clear
1:14 AM 66.2 °F 62.6 °F 88% 30.05 in 10.0 mi South 3.5 mph - N/A   Clear
1:33 AM 66.2 °F 62.6 °F 88% 30.07 in 10.0 mi South 3.5 mph - N/A   Mostly Cloudy
1:53 AM 68.0 °F 62.6 °F 83% 30.07 in 10.0 mi SSW 3.5 mph - N/A   Overcast
2:14 AM 66.2 °F 62.6 °F 88% 30.07 in 10.0 mi Calm Calm - N/A   Mostly Cloudy
2:33 AM 66.2 °F 62.6 °F 88% 30.05 in 10.0 mi SSE 5.8 mph - N/A   Mostly Cloudy
2:53 AM 66.2 °F 62.6 °F 88% 30.05 in 7.0 mi SSE 5.8 mph - N/A   Scattered Clouds
3:14 AM 66.2 °F 62.6 °F 88% 30.05 in 10.0 mi SSE 4.6 mph - N/A   Clear
3:33 AM 66.2 °F 62.6 °F 88% 30.06 in 7.0 mi South 3.5 mph - N/A   Clear
4:14 AM 66.2 °F 62.6 °F 88% 30.05 in 7.0 mi SSE 4.6 mph - N/A   Clear
4:33 AM 66.2 °F 62.6 °F 88% 30.05 in 7.0 mi SSE 5.8 mph - N/A   Scattered Clouds
4:53 AM 66.2 °F 62.6 °F 88% 30.04 in 7.0 mi SSE 5.8 mph - N/A   Scattered Clouds
5:13 AM 66.2 °F 62.6 °F 88% 30.05 in 7.0 mi SSE 5.8 mph - N/A   Scattered Clouds
5:34 AM 66.2 °F 62.6 °F 88% 30.05 in 7.0 mi Calm Calm - N/A   Mostly Cloudy
5:53 AM 66.2 °F 62.6 °F 88% 30.05 in 10.0 mi Calm Calm - N/A   Overcast
6:13 AM 66.2 °F 62.6 °F 88% 30.06 in 7.0 mi Calm Calm - N/A   Overcast
6:34 AM 66.2 °F 62.6 °F 88% 30.06 in 7.0 mi Calm Calm - N/A   Overcast
7:13 AM 66.2 °F 62.6 °F 88% 30.07 in 7.0 mi SE 3.5 mph - N/A   Mostly Cloudy
7:34 AM 68.0 °F 62.6 °F 83% 30.06 in 7.0 mi SE 4.6 mph - N/A   Scattered Clouds
7:53 AM 69.8 °F 64.4 °F 83% 30.07 in 7.0 mi Calm Calm - N/A   Scattered Clouds
8:13 AM 69.8 °F 64.4 °F 83% 30.07 in 10.0 mi Calm Calm - N/A   Mostly Cloudy
8:34 AM 69.8 °F 64.4 °F 83% 30.07 in 10.0 mi South 4.6 mph - N/A   Mostly Cloudy
8:53 AM 71.6 °F 64.4 °F 78% 30.06 in 10.0 mi South 3.5 mph - N/A   Scattered Clouds
9:13 AM 71.6 °F 64.4 °F 78% 30.05 in 10.0 mi South 4.6 mph - N/A   Mostly Cloudy
9:34 AM 73.4 °F 64.4 °F 73% 30.06 in 10.0 mi South 6.9 mph - N/A   Mostly Cloudy
9:53 AM 73.4 °F 64.4 °F 73% 30.06 in 10.0 mi South 5.8 mph - N/A Rain Light Rain
10:14 AM 73.4 °F 66.2 °F 78% 30.06 in 10.0 mi SW 8.1 mph - N/A   Mostly Cloudy
10:33 AM 71.6 °F 66.2 °F 83% 30.07 in 4.0 mi SW 8.1 mph - N/A Rain Light Rain
10:53 AM 71.6 °F 66.2 °F 83% 30.07 in 4.0 mi SW 4.6 mph - N/A Rain Light Rain
11:13 AM 71.6 °F 68.0 °F 88% 30.07 in 5.0 mi WSW 4.6 mph - N/A   Scattered Clouds
11:33 AM 75.2 °F 68.0 °F 78% 30.06 in 10.0 mi SSW 6.9 mph - N/A   Scattered Clouds
11:54 AM 75.2 °F 66.2 °F 73% 30.06 in 10.0 mi South 5.8 mph - N/A   Scattered Clouds
12:13 PM 77.0 °F 66.2 °F 69% 30.06 in 10.0 mi SSW 8.1 mph - N/A   Scattered Clouds
12:33 PM 75.2 °F 66.2 °F 73% 30.06 in 10.0 mi SSW 9.2 mph - N/A   Mostly Cloudy
12:54 PM 77.0 °F 66.2 °F 69% 30.06 in 10.0 mi SSE 6.9 mph - N/A   Mostly Cloudy
1:13 PM 75.2 °F 66.2 °F 73% 30.06 in 10.0 mi South 8.1 mph - N/A   Mostly Cloudy
1:33 PM 73.4 °F 68.0 °F 83% 30.05 in 4.0 mi SSW 8.1 mph - 0.07 in Rain Heavy Rain
1:54 PM 73.4 °F 66.2 °F 78% 30.05 in 7.0 mi WSW 8.1 mph - 0.13 in Rain Rain
2:13 PM 71.6 °F 68.0 °F 88% 30.05 in 5.0 mi West 10.4 mph - 0.09 in Rain Heavy Rain
2:33 PM 71.6 °F 68.0 °F 88% 30.05 in 10.0 mi SW 6.9 mph - 0.25 in Rain Light Rain
2:53 PM 73.4 °F 69.8 °F 88% 30.04 in 10.0 mi SSW 8.1 mph - 0.25 in   Mostly Cloudy
3:13 PM 71.6 °F 68.0 °F 88% 30.05 in 2.0 mi Calm Calm - 0.15 in Rain , Thunderstorm Heavy Thunderstorms and Rain
3:33 PM 71.6 °F 66.2 °F 83% 30.04 in 10.0 mi Calm Calm - 0.22 in Rain Light Rain
3:53 PM 73.4 °F 69.8 °F 88% 30.04 in 10.0 mi SE 5.8 mph - 0.22 in   Overcast
4:14 PM 71.6 °F 68.0 °F 88% 30.04 in 2.0 mi South 4.6 mph - 0.12 in Rain Rain
4:33 PM 73.4 °F 68.0 °F 83% 30.04 in 10.0 mi Calm Calm - 0.12 in   Overcast
4:53 PM 73.4 °F 66.2 °F 78% 30.03 in 10.0 mi NNE 4.6 mph - 0.12 in   Overcast
5:33 PM 75.2 °F 64.4 °F 69% 30.03 in 10.0 mi NNW 10.4 mph - N/A   Scattered Clouds
5:53 PM 75.2 °F 64.4 °F 69% 30.03 in 10.0 mi NW 8.1 mph - N/A   Clear
6:14 PM 75.2 °F 64.4 °F 69% 30.04 in 10.0 mi WNW 4.6 mph - N/A   Clear
6:33 PM 75.2 °F 66.2 °F 73% 30.04 in 10.0 mi NW 4.6 mph - N/A   Scattered Clouds
6:53 PM 75.2 °F 66.2 °F 73% 30.03 in 10.0 mi NW 4.6 mph - N/A   Scattered Clouds
7:14 PM 75.2 °F 66.2 °F 73% 30.03 in 10.0 mi NW 3.5 mph - N/A   Clear
7:33 PM 75.2 °F 66.2 °F 73% 30.04 in 10.0 mi NW 4.6 mph - N/A   Scattered Clouds
7:53 PM 75.2 °F 66.2 °F 73% 30.04 in 10.0 mi WNW 3.5 mph - N/A   Mostly Cloudy
8:14 PM 73.4 °F 66.2 °F 78% 30.03 in 10.0 mi WNW 6.9 mph - N/A   Mostly Cloudy
8:33 PM 73.4 °F 66.2 °F 78% 30.04 in 10.0 mi WNW 6.9 mph - N/A   Scattered Clouds
8:53 PM 71.6 °F 64.4 °F 78% 30.04 in 10.0 mi NW 8.1 mph - N/A   Scattered Clouds
9:13 PM 71.6 °F 64.4 °F 78% 30.05 in 10.0 mi NW 11.5 mph 17.3 mph N/A   Clear
9:33 PM 69.8 °F 64.4 °F 83% 30.05 in 10.0 mi Calm Calm - N/A   Clear
9:54 PM 69.8 °F 64.4 °F 83% 30.05 in 10.0 mi NW 10.4 mph - N/A   Clear
10:12 PM 69.8 °F 64.4 °F 83% 30.05 in 10.0 mi NW 8.1 mph - N/A   Clear
10:33 PM 68.0 °F 64.4 °F 88% 30.05 in 10.0 mi NW 8.1 mph - N/A   Clear
10:54 PM 68.0 °F 64.4 °F 88% 30.05 in 10.0 mi NW 9.2 mph - N/A   Clear
11:13 PM 68.0 °F 64.4 °F 88% 30.05 in 10.0 mi NW 11.5 mph 17.3 mph N/A   Clear
11:33 PM 66.2 °F 64.4 °F 94% 30.05 in 10.0 mi NW 11.5 mph - N/A   Clear
11:54 PM 66.2 °F 62.6 °F 88% 30.06 in 10.0 mi NW 10.4 mph - N/A   Clear